Find Starlink 6099

NORAD ID: 57108 Int'l Des: 2023-090 Owner: SPXS Country: US Constellation: starlink operational
LEOCIRCULAR

リアルタイム位置

3D地球を読み込み中...

Starlink 6099について

説明を読み込み中...

次回通過

Passes for default location (London). Set your location on the main map for personalized predictions.

高度履歴

Loading altitude history...

軌道要素

1 57108U 23090H 26120.91668981 .00015889 00000-0 58588-3 0 9992
2 57108 43.0004 346.6036 0001251 267.8414 316.5922 15.27567658 5749
Epoch: Apr 30, 2026 • Age: 9 hours

現在のステータス

高度 490.9 km
速度 7.62 km/s
衛星直下点 -31.12°S, 126.32°W
打ち上げ日 Jun 23, 2023
運用期間 2.8 years
タイプ internet

技術仕様

分類 Payload
質量 305.00 kg
乾燥質量 290.00 kg
総質量 305.00 kg
長さ 0.20 m
直径 2.80 m
スパン 9.00 m
形状 Box + pan
製造者 SPXS
バスタイプ Starlink
フェーズステータス In Orbit
所有者/国 SPXS/US

Most Searched